Tracking 29892 objects as of 21-Nov-2024
HD Live streaming from Space Station
objects crossing your sky now

SL-16 DEB

Track SL-16 DEB now!
10-day predictions


NORAD ID: 24303
Int'l Code: 1996-051G
Perigee: 822.2 km
Apogee: 922.4 km
Inclination: 71.1 °
Period: 102.3 minutes
Semi major axis: 7243 km
RCS: 0.4797 m2 (medium)
Launch date: September 4, 1996
Source: Commonwealth of Independent States (former USSR) (CIS)
Launch site: TYURATAM MISSILE AND SPACE COMPLEX (TTMTR)

Note: This is SATELLITE DEBRIS
Your satellite tracking list
Your tracking list is empty




NASA's NSSDC Master Catalog

Two Line Element Set (TLE):
1 24303U 96051G   24325.98214306 -.00000051  00000-0 -29171-5 0  9995
2 24303  71.1044 135.6526 0069216 148.1327 293.7850 14.08308038450254
Source of the keplerian elements: AFSPC